Weather History for Limon, CO

Change the Weather History Date:

Sunday, March 3, 2013

  Actual Average Record
Temperature  
Mean Temperature 43 °F -  
Max Temperature 59 °F - 71 °F (2009)
Min Temperature 26 °F - 1 °F (2002)
Degree Days  
Heating Degree Days 22    
Month to date heating degree days 87  
Cooling Degree Days 0    
Month to date cooling degree days 0  
Moisture  
Dew Point 25 °F    
Average Humidity 59    
Maximum Humidity 92    
Minimum Humidity 21    
Precipitation  
Precipitation 0.00 in - 0.00 in (2015)
Month to date precipitation 0.00  
Year to date precipitation 0.86  
Sea Level Pressure  
Sea Level Pressure 29.77 in    
Wind  
Wind Speed 4 mph (North)    
Max Wind Speed 14 mph    
Max Gust Speed 15 mph    
Visibility 10 miles    
Events      
T = Trace of Precipitation, MM = Missing Value Source: NWS Daily Summary

Daily Weather History Graph

Daily Weather History Graph

Search for Another Location

Airport:

Trip Planner

Search our weather history database for the weather conditions in past years. The results will help you decide how hot, cold, wet, or windy it might be!

Date:

Astronomy

Mar. 03, 2013 Rise Set
Actual Time 6:23 AM MST 5:49 PM MST
Civil Twilight 5:57 AM MST 6:16 PM MST
Nautical Twilight 5:26 AM MST 6:47 PM MST
Astronomical Twilight 4:55 AM MST 7:18 PM MST
Moon No Moon Rise 9:43 AM MST (3/3)
Length of Visible Light 12h 19m
Length of Day
11h 25m
Waning Gibbous, 63% of the Moon is Illuminated
Mar 3
Waning Gibbous
Mar 4
Last Quarter
Mar 11
New
Mar 19
First Quarter
Mar 27
Full

Hourly Weather History & Observations

Time (MST) Temp. Windchill Dew Point Humidity Pressure Visibility Wind Dir Wind Speed Gust Speed Precip Events Conditions
12:55 AM 28.0 °F 24.2 °F 26.1 °F 92% 30.03 in 10.0 mi North 3.5 mph - N/A   Clear
1:55 AM 26.1 °F 21.9 °F 24.1 °F 92% 30.00 in 10.0 mi North 3.5 mph - N/A   Clear
2:55 AM 26.1 °F - 24.1 °F 92% 29.94 in 10.0 mi Calm Calm - N/A   Clear
3:55 AM 37.0 °F - 25.0 °F 62% 29.88 in 10.0 mi Calm Calm - N/A   Clear
5:55 AM 37.0 °F 31.0 °F 26.1 °F 65% 29.88 in 10.0 mi ESE 8.1 mph - N/A   Clear
6:55 AM 35.1 °F 28.6 °F 27.0 °F 72% 29.87 in 10.0 mi ESE 8.1 mph - N/A   Clear
7:55 AM 37.9 °F - 27.0 °F 65% 29.86 in 10.0 mi Calm Calm - N/A   Clear
8:55 AM 41.0 °F - 30.9 °F 67% 29.85 in 10.0 mi Calm Calm - N/A   Clear
9:55 AM 46.0 °F 43.1 °F 28.0 °F 50% 29.81 in 10.0 mi NW 5.8 mph - N/A   Clear
10:55 AM 53.1 °F - 26.1 °F 35% 29.77 in 10.0 mi NNW 9.2 mph - N/A   Clear
11:55 AM 55.9 °F - 23.0 °F 28% 29.73 in 10.0 mi NNW 9.2 mph - N/A   Clear
12:55 PM 57.0 °F - 21.0 °F 25% 29.68 in 10.0 mi North 6.9 mph - N/A   Clear
1:55 PM 59.0 °F - 19.0 °F 21% 29.65 in 10.0 mi Calm Calm - N/A   Clear
2:55 PM 57.9 °F - 21.0 °F 24% 29.64 in 10.0 mi SSE 6.9 mph - N/A   Clear
3:55 PM 57.9 °F - 19.0 °F 22% 29.57 in 10.0 mi SSE 6.9 mph - N/A   Clear
4:55 PM 55.0 °F - 28.0 °F 35% 29.59 in 10.0 mi ESE 5.8 mph - N/A   Clear
6:55 PM 39.0 °F - 28.9 °F 67% 29.68 in 10.0 mi Calm Calm - N/A   Mostly Cloudy
8:55 PM 34.0 °F 28.0 °F 28.0 °F 79% 29.69 in 10.0 mi North 6.9 mph - N/A   Clear
9:55 PM 30.9 °F - 26.1 °F 82% 29.67 in 10.0 mi Calm Calm - N/A   Clear
10:55 PM 30.9 °F 24.3 °F 26.1 °F 82% 29.66 in 10.0 mi North 6.9 mph - N/A   Clear
11:55 PM 32.0 °F 24.8 °F 26.1 °F 79% 29.63 in 10.0 mi WNW 8.1 mph - N/A   Clear